Hourly Data Report for May 02, 2012

All times are specified in Local Standard Time (LST). Add 1 hour to adjust for Daylight Saving Time where and when it is observed.

DEER LAKE A
NEWFOUNDLAND

49°12'33.000" N
57°23'40.000" W
21.90 m
8401502
71809
YDF

Download Data

Hourly Data (May 2012)
Hourly Data Report for May 2, 2012
Temp Definition
°C
Dew Point Temp Definition
°C
Rel Hum Definition
%
Wind Dir Definition
10's deg

Wind Spd Definition
km/h
Visibility Definition
km
Stn Press Definition
kPa
Hmdx Definition


Wind Chill Definition


Weather Definition


TIME
00:30 Legend Double Dagger -3.4 -5.0 89   0 10.0 102.27     LegendNANA
01:30 Legend Double Dagger -4.6 -6.0 90   0 10.0 102.26     LegendNANA
02:30 Legend Double Dagger -5.4 -6.5 92   0 10.0 102.25     Clear
03:30 Legend Double Dagger -5.6 -6.6 93   0 10.0 102.29     LegendNANA
04:30 Legend Double Dagger -6.4 -7.4 93   0 10.0 102.28     LegendNANA
05:30 Legend Double Dagger -6.6 -7.6 93   0 10.0 102.29     Clear
06:30 Legend Double Dagger -3.2 -4.3 92   0 10.0 102.32     LegendNANA
07:30 Legend Double Dagger -0.4 -3.4 80 21 7 10.0 102.30   -3 LegendNANA
08:30 Legend Double Dagger 1.5 -3.6 69 22 8 10.0 102.26     Clear
09:30 Legend Double Dagger 4.2 -4.8 52   0 10.0 102.20     LegendNANA
10:30 Legend Double Dagger 6.6 -3.9 47 10 4 10.0 102.13     LegendNANA
11:30 Legend Double Dagger 8.9 -3.3 42 23 5 10.0 102.06     Mainly Clear
12:30 Legend Double Dagger 10.6 -4.6 34 34 18 10.0 101.97     LegendNANA
13:30 Legend Double Dagger 11.1 -3.4 36 33 16 10.0 101.90     LegendNANA
14:30 Legend Double Dagger 11.2 -4.1 34 2 18 10.0 101.85     Mainly Clear
15:30 Legend Double Dagger 11.1 -5.0 32 35 19 10.0 101.81     LegendNANA
16:30 Legend Double Dagger 10.5 -2.8 39 2 14 10.0 101.82     LegendNANA
17:30 Legend Double Dagger 7.9 -3.3 45 2 23 10.0 101.86     Mainly Clear
18:30 Legend Double Dagger 6.5 -4.0 47 2 24 10.0 101.88     LegendNANA
19:30 Legend Double Dagger 3.9 -3.4 59 4 24 10.0 101.93     LegendNANA
20:30 Legend Double Dagger 3.3 -2.9 64 2 15 10.0 101.93     Mostly Cloudy
21:30 Legend Double Dagger 2.6 -2.5 69 3 19 10.0 101.93     LegendNANA
22:30 Legend Double Dagger 2.5 -2.0 72 2 8 10.0 101.88     LegendNANA
23:30 Legend Double Dagger 2.6 -1.6 74   0 10.0 101.80     Cloudy

Notes on Data Quality.

Legend

  • E = Estimated
  • M = Missing
  • NA = Not Available
  • ‡ = Partner data that is not subject to review by the National Climate Archives
Date modified: